This is the latest recevied weather packets stored in our database for station/object KC1IUC-15. If no packets are shown the sender has not sent any weather packets the latest 10 day(s).
| Time | Temp. | Humidity | Pressure | Rain* | Wind** | Luminosity | Snow |
|---|---|---|---|---|---|---|---|
| 1777736403 | 13.33° C | 71% | 1011 hPa | 0 mm | - | 249 W/m² | - |
| 1777736103 | 12.78° C | 72% | 1010.6 hPa | 0 mm | - | 274 W/m² | - |
| 1777735803 | 12.78° C | 72% | 1011 hPa | 0 mm | - | 189 W/m² | - |
| 1777735503 | 12.22° C | 73% | 1011.3 hPa | 0 mm | - | 192 W/m² | - |
| 1777735203 | 12.78° C | 74% | 1011.3 hPa | 0 mm | - | 150 W/m² | - |
| 1777734903 | 12.22° C | 75% | 1011.3 hPa | 0 mm | - | 111 W/m² | - |
| 1777734603 | 12.78° C | 72% | 1011.3 hPa | 0 mm | - | 53 W/m² | - |
| 1777734303 | 12.78° C | 72% | 1011 hPa | 0 mm | - | 81 W/m² | - |
| 1777734003 | 12.78° C | 69% | 1011.3 hPa | 0 mm | - | 186 W/m² | - |
| 1777733703 | 12.78° C | 71% | 1011.3 hPa | 0 mm | - | 190 W/m² | - |
| 1777733404 | 12.78° C | 72% | 1011.3 hPa | 0 mm | - | 162 W/m² | - |
| 1777733103 | 12.78° C | 71% | 1011.3 hPa | 0 mm | - | 176 W/m² | - |
| 1777732803 | 12.78° C | 73% | 1011.3 hPa | 0 mm | - | 202 W/m² | - |
| 1777732503 | 12.78° C | 72% | 1011.3 hPa | 0 mm | - | 162 W/m² | - |
| 1777732203 | 12.78° C | 72% | 1011.6 hPa | 0 mm | - | 71 W/m² | - |
| 1777731904 | 12.78° C | 70% | 1011.6 hPa | 0 mm | - | 83 W/m² | - |
| 1777731603 | 12.78° C | 71% | 1011.3 hPa | 0 mm | - | 74 W/m² | - |
| 1777731325 | 12.78° C | 70% | 1011.3 hPa | 0 mm | - | 79 W/m² | - |
| 1777731025 | 12.78° C | 72% | 1011.6 hPa | 0 mm | - | 70 W/m² | - |
| 1777730703 | 12.22° C | 71% | 1011.3 hPa | 0 mm | - | 139 W/m² | - |
| 1777730404 | 12.78° C | 70% | 1011.6 hPa | 0 mm | - | 451 W/m² | - |
| 1777730103 | 12.78° C | 70% | 1011.6 hPa | 0 mm | - | 355 W/m² | - |
| 1777729804 | 12.78° C | 70% | 1011.6 hPa | 0 mm | - | 378 W/m² | - |
| 1777729503 | 12.22° C | 77% | 1011.3 hPa | 0 mm | - | 712 W/m² | - |
| 1777729203 | 12.22° C | 73% | 1011.6 hPa | 0 mm | - | 542 W/m² | - |
* Rain latest hour (hover to see other rain measurements)
** Current wind speed in m/s (hover to see current wind gust speed)